[[{"header":{"parameterUnit":"m.s-1","parameterCategory":1,"la1":30.2991,"la2":30.254,"lo1":-89.0895,"lo2":-89.0444,"dy":0.0017,"dx":0.0017,"nx":28,"ny":28,"refTime":"2023-08-03T21:00:00:Z","depth":0,"parameterNumber":2,"parameterNumberName":"U-component_of_WINDS"},"data":[0,0,0,0,0,0,0,0,0,0,0,0,0,0,0,0,0,0,0,0,0,0,0,0,0,0,0,0,0,0,0,0,0,0,0,0,0,0,0,0,0,0,0,0,0,0,0,0,0,0,0,0,0,0,0,0,0,0,1.8657,1.8658,0,1.8735,1.8736,1.8737,1.872,1.8718,1.8717,1.8715,1.8801,1.8805,1.8809,0,0,0,0,0,0,0,0,0,0,0,0,0,1.8502,1.8505,1.8657,1.8658,1.8659,1.8735,1.8736,1.8737,1.872,1.8718,1.8716,1.8715,1.88,1.8805,1.8809,0,0,0,0,0,0,0,0,0,0,0,0,0,1.8573,1.8506,1.8657,1.866,1.8661,1.8735,1.8736,1.8737,1.872,1.8718,1.8716,1.8714,1.8799,1.8804,1.881,1.8888,0,0,1.8826,1.8829,0,0,0,0,0,0,0,0,1.8569,1.8579,1.8658,1.866,1.8661,1.8715,1.8713,1.8788,1.8721,1.8698,1.8715,1.8713,1.8775,1.8782,1.8802,1.8892,1.8895,1.8827,1.883,1.8833,1.8834,0,0,0,0,0,0,0,1.8564,1.8576,1.8688,1.866,1.8661,1.8659,1.8667,1.8727,1.8748,1.87,1.8699,1.8708,1.8775,1.8797,1.8804,1.8897,1.8827,1.8832,1.8835,1.8837,1.9057,1.906,0,0,0,0,0,0,1.8557,1.8572,1.8686,1.869,1.8608,1.8664,1.8673,1.87,1.8747,1.8752,1.8709,1.8707,1.8788,1.8797,1.8807,1.8903,1.8833,1.8838,1.8841,1.9055,1.9058,1.9061,0,0,0,0,0,0,1.8554,1.8568,1.8683,1.8631,1.8645,1.8669,1.87,1.8703,1.8724,1.8755,1.8759,1.8727,1.8787,1.8799,1.8868,1.8906,1.884,1.8845,1.9052,1.9056,1.9059,1.9095,0,0,0,0,0,0,1.855,1.8567,1.8595,1.8631,1.8648,1.874,1.8702,1.8706,1.8733,1.873,1.8772,1.8777,1.8786,1.886,1.8873,1.8912,1.8849,1.9049,1.9054,1.9058,1.9091,1.91,1.9108,0,0,0,0,0,1.8544,1.8603,1.8596,1.861,1.8683,1.8742,1.8752,1.8759,1.8736,1.8766,1.8786,1.8776,1.8899,1.8867,1.8882,1.8923,1.9046,1.9052,1.9058,1.9087,1.9098,1.9107,0,0,0,0,0,0,1.8572,1.8608,1.8601,1.8672,1.8704,1.8739,1.8777,1.877,1.8811,1.8807,1.8816,1.8826,1.8897,1.8917,1.888,1.9003,1.897,1.8979,1.8987,1.8998,1.9006,1.9,1.8854,0,0,0,0,0,1.8586,1.8628,1.8658,1.8719,1.8735,1.8753,1.8779,1.8782,1.8816,1.883,1.8855,1.8891,1.8938,1.8969,1.9013,1.9093,1.9104,1.9129,1.9138,1.9144,1.9153,1.9199,1.9211,1.908,1.908,1.9079,0,0,1.8616,1.8641,1.8668,1.8725,1.875,1.8797,1.8765,1.8815,1.885,1.8839,1.8905,1.8925,1.8965,1.904,1.9075,1.9059,1.9191,1.9152,1.9157,1.9162,1.9206,1.9219,1.923,1.9084,1.9083,1.9082,0,0,1.8695,1.8717,1.8771,1.8796,1.8834,1.8846,1.8859,1.8895,1.8907,1.8973,1.8966,1.901,1.9089,1.9119,1.9145,1.9236,1.923,1.9251,1.9295,1.934,1.9351,1.936,1.9394,1.9407,1.9259,1.9259,1.9259,0,1.8729,1.8796,1.88,1.8851,1.8878,1.8867,1.8923,1.8949,1.9,1.902,1.9001,1.9102,1.9129,1.9212,1.9234,1.9254,1.9272,1.9247,1.9348,1.9358,1.9366,1.94,1.9412,1.9261,1.9261,1.9261,1.9261,0,1.8837,1.8884,1.8923,1.8971,1.9002,1.9055,1.907,1.9101,1.9101,1.9116,1.9185,1.9216,1.9268,1.9288,1.9289,1.9372,1.9361,1.9345,1.9313,1.9381,1.9413,1.9425,1.9265,1.9264,1.9263,1.9263,0,0,1.8936,1.8985,1.9,1.9022,1.9063,1.9101,1.9155,1.9203,1.9231,1.9267,1.9315,1.9383,1.9369,1.9398,1.9403,1.9442,1.9515,1.9421,1.9423,1.9439,1.9611,1.9623,1.9638,1.951,1.9512,1.9514,1.9608,0,1.902,1.9113,1.9118,1.9203,1.9249,1.924,1.9287,1.9319,1.9335,1.9377,1.9395,1.9444,1.942,1.9438,1.9476,1.9498,1.955,1.9491,1.9557,1.9559,1.9548,1.9654,1.9668,1.9754,1.962,1.9622,1.9623,0,1.913,1.9168,1.9257,1.9293,1.9313,1.9355,1.9401,1.944,1.9478,1.9486,1.9519,1.9519,1.9577,1.9541,1.9623,1.9583,1.9611,1.9625,1.9629,1.9637,1.9596,1.9667,1.9782,1.9795,1.9643,1.9641,1.964,0,1.9196,1.927,1.9333,1.9352,1.9395,1.9425,1.9445,1.948,1.9509,1.955,1.957,1.9618,1.9644,1.9683,1.9696,1.9668,1.9779,1.9743,1.979,1.979,1.9815,1.9813,1.9938,1.983,1.9829,1.9829,1.9829,0,1.9291,1.9346,1.9363,1.9402,1.9465,1.9472,1.9535,1.9553,1.9584,1.9629,1.9624,1.9667,1.9681,1.9727,1.9738,1.9806,1.9817,1.9828,1.9831,1.9829,1.9828,1.9849,1.9844,1.9833,1.9832,1.9831,1.9831,0,1.9375,1.9388,1.9457,1.9492,1.9502,1.9547,1.9578,1.9617,1.9632,1.9688,1.9702,1.9726,1.978,1.9797,1.9862,1.9869,1.9949,1.9945,1.9936,1.9937,1.9983,1.9979,2.0126,2.0147,2.0023,2.0025,2.0026,0,1.9435,1.9477,1.9517,1.9545,1.9566,1.9612,1.9642,1.9651,1.9682,1.9728,1.9763,1.9815,1.9857,1.9944,1.9969,2.0019,2.0018,2.0066,2.0026,2.0024,2.0021,2.0019,2.0024,2.0074,2.0076,2.0077,2.0078,0,1.9541,1.9546,1.9587,1.9632,1.9667,1.9703,1.9738,1.9763,1.9777,1.9813,1.9867,1.99,1.9966,2.0019,2.007,2.0094,2.009,2.009,2.0104,2.0103,2.0097,2.0103,1.9958,2.0087,2.0086,2.0085,2.0085,2.0084,1.9617,1.9655,1.9688,1.9736,1.9762,1.9795,1.9834,1.9853,1.9897,1.995,1.9954,2.0012,2.005,2.0118,2.0144,2.0192,2.0179,2.0198,2.0203,2.0209,2.0213,2.0088,2.0201,2.0201,2.0201,2.0201,2.0201,0,1.9724,1.9745,1.9789,1.9837,1.9875,1.9864,1.9903,1.9936,1.9987,2.0022,2.0063,2.0126,2.0178,2.0207,2.0259,2.0292,2.0292,2.0306,2.0304,2.031,2.0221,2.0205,2.0305,2.0305,2.0305,2.0305,2.0305,2.0305,1.9785,1.9849,1.9857,1.9936,1.9957,2.0013,2.0036,2.0067,2.0095,2.0165,2.0207,2.0224,2.0258,2.0312,2.036,2.0368,2.0388,2.0404,2.041,2.0327,2.0316,2.0306,2.0291,2.0408,2.0408,2.0496,2.0497,2.0497]},{"header":{"parameterUnit":"m.s-1","parameterCategory":1,"la1":30.2991,"la2":30.254,"lo1":-89.0895,"lo2":-89.0444,"dy":0.0017,"dx":0.0017,"nx":28,"ny":28,"refTime":"2023-08-03T21:00:00:Z","depth":0,"parameterNumber":3,"parameterNumberName":"V-component_of_WINDS"},"data":[0,0,0,0,0,0,0,0,0,0,0,0,0,0,0,0,0,0,0,0,0,0,0,0,0,0,0,0,0,0,0,0,0,0,0,0,0,0,0,0,0,0,0,0,0,0,0,0,0,0,0,0,0,0,0,0,0,0,1.8427,1.8427,0,1.8477,1.8478,1.8478,1.8478,1.8477,1.8477,1.8476,1.8525,1.8527,1.8528,0,0,0,0,0,0,0,0,0,0,0,0,0,1.8326,1.8328,1.8427,1.8427,1.8428,1.8477,1.8478,1.8478,1.8478,1.8477,1.8476,1.8476,1.8524,1.8526,1.8529,0,0,0,0,0,0,0,0,0,0,0,0,0,1.8372,1.8328,1.8427,1.8434,1.8435,1.8477,1.8478,1.8478,1.8478,1.8477,1.8476,1.8475,1.8523,1.8526,1.8529,1.8566,0,0,1.8538,1.8539,0,0,0,0,0,0,0,0,1.837,1.8376,1.8432,1.8433,1.8435,1.847,1.846,1.8508,1.8478,1.8462,1.8476,1.8475,1.8507,1.8511,1.8523,1.8568,1.8571,1.8538,1.854,1.8541,1.8542,0,0,0,0,0,0,0,1.8366,1.8374,1.8447,1.8433,1.8435,1.8433,1.8438,1.8469,1.8489,1.8463,1.8463,1.8469,1.8508,1.852,1.8524,1.8571,1.8538,1.854,1.8542,1.8543,1.8645,1.8646,0,0,0,0,0,0,1.8362,1.8371,1.8445,1.8448,1.8399,1.8436,1.8442,1.846,1.8489,1.8492,1.847,1.8469,1.8516,1.8521,1.8526,1.8568,1.8541,1.8544,1.8545,1.8644,1.8646,1.8647,0,0,0,0,0,0,1.836,1.8369,1.8443,1.841,1.8419,1.8438,1.8459,1.8461,1.8474,1.8494,1.8497,1.8479,1.8515,1.8522,1.8555,1.857,1.8545,1.8547,1.8643,1.8645,1.8646,1.8656,0,0,0,0,0,0,1.8357,1.8368,1.8384,1.841,1.8421,1.8473,1.846,1.8463,1.8479,1.8478,1.8504,1.8507,1.8515,1.8551,1.8558,1.8574,1.855,1.8642,1.8644,1.8646,1.8654,1.8657,1.866,0,0,0,0,0,1.8354,1.8385,1.8385,1.8394,1.8441,1.8474,1.848,1.8489,1.848,1.8495,1.8507,1.8506,1.8567,1.8554,1.8562,1.8579,1.8641,1.8643,1.8645,1.8653,1.8657,1.866,0,0,0,0,0,0,1.836,1.8389,1.8389,1.843,1.845,1.8474,1.8494,1.8494,1.8516,1.8515,1.8524,1.853,1.8562,1.8574,1.8559,1.8614,1.8603,1.8607,1.8605,1.8609,1.8612,1.8608,1.8552,0,0,0,0,0,1.8366,1.8392,1.8415,1.8449,1.8459,1.8474,1.8489,1.8494,1.8515,1.8523,1.8538,1.8558,1.858,1.8596,1.8619,1.8656,1.8659,1.8671,1.8674,1.8676,1.8679,1.8696,1.87,1.8654,1.8654,1.8654,0,0,1.838,1.8398,1.8414,1.8451,1.8467,1.8491,1.8482,1.8509,1.8526,1.8527,1.8559,1.8571,1.8592,1.8627,1.8643,1.8638,1.8692,1.8679,1.868,1.8682,1.8698,1.8703,1.8707,1.8655,1.8655,1.8655,0,0,1.8415,1.8434,1.8462,1.8478,1.8502,1.8511,1.8518,1.8542,1.8549,1.8582,1.8582,1.8602,1.8643,1.8657,1.867,1.8707,1.8706,1.8714,1.873,1.8746,1.875,1.8753,1.8764,1.8768,1.8718,1.8718,1.8718,0,1.8429,1.8467,1.8476,1.8503,1.8517,1.8519,1.8546,1.8561,1.8591,1.86,1.8594,1.8642,1.8658,1.8694,1.8702,1.8714,1.8719,1.8711,1.8749,1.8752,1.8755,1.8765,1.877,1.8718,1.8718,1.8718,1.8718,0,1.848,1.8506,1.8526,1.8554,1.8571,1.8598,1.8609,1.8625,1.8628,1.8637,1.8668,1.8686,1.8711,1.872,1.8723,1.8756,1.8751,1.8747,1.8735,1.876,1.877,1.8774,1.8719,1.8719,1.8719,1.8719,0,0,1.8523,1.8554,1.8561,1.8572,1.8597,1.8617,1.8642,1.8666,1.8678,1.8698,1.8718,1.8751,1.8746,1.876,1.8765,1.8779,1.8804,1.8773,1.8773,1.8776,1.8837,1.8839,1.8844,1.8803,1.8804,1.8805,1.8835,0,1.8559,1.8605,1.8613,1.8653,1.8675,1.8675,1.8696,1.8713,1.8722,1.8741,1.875,1.8772,1.8765,1.8773,1.8788,1.8798,1.8816,1.8796,1.882,1.8821,1.8813,1.885,1.8853,1.888,1.8839,1.884,1.884,0,1.8609,1.8629,1.8671,1.8689,1.8699,1.8719,1.8739,1.8758,1.8776,1.8781,1.8795,1.8798,1.8821,1.8809,1.884,1.8826,1.8836,1.8842,1.8843,1.8845,1.8831,1.885,1.8889,1.8893,1.8847,1.8846,1.8846,0,1.8632,1.867,1.8699,1.8709,1.8733,1.8745,1.8756,1.8772,1.8785,1.8803,1.8811,1.8832,1.8843,1.8857,1.8864,1.8855,1.8894,1.8883,1.8897,1.8897,1.8904,1.8904,1.8944,1.8914,1.8913,1.8913,1.8913,0,1.8672,1.8696,1.8709,1.8727,1.8753,1.8761,1.8787,1.8796,1.8811,1.8828,1.883,1.8846,1.8855,1.8872,1.8877,1.8901,1.8906,1.8909,1.891,1.8908,1.8908,1.8914,1.8912,1.8914,1.8914,1.8914,1.8914,0,1.8702,1.8712,1.8743,1.8762,1.8767,1.8786,1.8801,1.8817,1.8825,1.8847,1.8853,1.8865,1.8885,1.8893,1.8918,1.8921,1.8947,1.8948,1.8941,1.8941,1.8954,1.8952,1.8999,1.9004,1.8972,1.8972,1.8972,0,1.8726,1.8744,1.8765,1.8777,1.8787,1.8807,1.882,1.8827,1.884,1.886,1.8872,1.8892,1.8909,1.894,1.895,1.8968,1.8968,1.8982,1.897,1.8967,1.8965,1.8963,1.8964,1.8984,1.8985,1.8985,1.8985,0,1.8765,1.8769,1.8788,1.8807,1.8822,1.8838,1.8853,1.8863,1.8872,1.8886,1.8906,1.8919,1.8943,1.8962,1.898,1.8989,1.8988,1.8989,1.8993,1.8991,1.8985,1.8986,1.8946,1.8988,1.8988,1.8987,1.8987,1.8987,1.8792,1.8807,1.8823,1.8843,1.8855,1.8868,1.8883,1.8892,1.891,1.893,1.8933,1.8954,1.8968,1.8992,1.9001,1.9017,1.9013,1.9019,1.902,1.9021,1.9021,1.8984,1.902,1.902,1.902,1.902,1.902,0,1.8829,1.8839,1.8857,1.8878,1.8893,1.8891,1.8907,1.8919,1.8938,1.8951,1.8967,1.8988,1.9006,1.9017,1.9034,1.9044,1.9044,1.9048,1.9046,1.9048,1.9025,1.9019,1.9048,1.9048,1.9048,1.9048,1.9048,1.9048,1.8851,1.8875,1.888,1.891,1.8919,1.894,1.8949,1.8961,1.8971,1.8995,1.901,1.9017,1.9028,1.9046,1.9061,1.9064,1.9069,1.9073,1.9075,1.9053,1.905,1.9047,1.9042,1.9075,1.9075,1.9097,1.9097,1.9098]}]]